KC3FKS-2 Weather Reports


Display with metric or nautical units.
time (UTC)temp
F
wind
direction
speed
MPH
gust
MPH
rain 1hr
in
rain 24hr
in
rain mn
in
humidity
%
barometer
mb
20170920035914 70 349 7.0 8.0 0.00 0.00 0.11
20170920035414 70 333 9.0 8.0 0.00 0.00 0.11
20170920034913 70 345 7.0 7.0 0.00 0.00 0.11
20170920034411 70 342 8.0 7.0 0.00 0.00 0.11
20170920033911 70 4 2.0 4.0 0.00 0.00 0.11
20170920033411 70 343 4.0 4.0 0.00 0.00 0.11
20170920032910 70 283 0.0 0.0 0.00 0.00 0.11
20170920032408 70 333 0.0 2.0 0.00 0.00 0.11
20170920031908 70 349 0.0 1.0 0.00 0.00 0.11
20170920031408 70 321 3.0 0.0 0.00 0.00 0.11
20170920030908 70 285 1.0 3.0 0.00 0.00 0.11
20170920025905 70 343 4.0 7.0 0.00 0.00 0.11
20170920022903 70 18 9.0 8.0 0.01 0.00 0.11
20170920022400 70 346 8.0 9.0 0.01 0.00 0.11
20170920020357 70 345 12.0 9.0 0.01 0.00 0.11
20170920015858 70 349 5.0 6.0 0.01 0.00 0.11
20170920015357 70 335 5.0 5.0 0.00 0.00 0.11
20170920014857 70 326 5.0 6.0 0.00 0.00 0.11
20170920014355 70 173 4.0 3.0 0.00 0.00 0.11
20170920013855 70 3 6.0 7.0 0.00 0.00 0.11
20170920013354 70 0 4.0 6.0 0.00 0.00 0.11
20170920011852 70 330 6.0 7.0 0.00 0.00 0.11
20170920011352 70 340 6.0 6.0 0.00 0.00 0.11
20170920005849 70 7 6.0 4.0 0.00 0.00 0.10
20170920005350 70 359 5.0 6.0 0.00 0.00 0.10
20170920004850 70 357 5.0 7.0 0.00 0.00 0.10
20170920004347 70 340 6.0 8.0 0.00 0.00 0.10
20170920003847 70 4 6.0 5.0 0.00 0.00 0.10
20170920002344 70 13 6.0 6.0 0.00 0.00 0.10
20170920001844 70 3 7.0 5.0 0.00 0.00 0.10
20170920001344 70 346 8.0 9.0 0.00 0.00 0.10
20170920000844 70 349 7.0 7.0 0.00 0.00 0.10
20170920000341 70 330 7.0 8.0 0.00 0.00 0.10
20170919235841 71 340 8.0 6.0 0.00 0.00 0.10
20170919235341 70 7 8.0 9.0 0.00 0.00 0.10
20170919234841 70 10 10.0 8.0 0.00 0.00 0.10
20170919234339 70 359 11.0 9.0 0.00 0.00 0.10
20170919233839 70 342 9.0 12.0 0.00 0.00 0.10
20170919233339 70 352 10.0 9.0 0.00 0.00 0.10
20170919232839 70 0 9.0 8.0 0.00 0.00 0.10
20170919232336 70 7 6.0 6.0 0.00 0.00 0.10
20170919231836 70 352 8.0 10.0 0.00 0.00 0.10
20170919230836 70 359 8.0 6.0 0.00 0.00 0.10
20170919230333 70 0 8.0 7.0 0.00 0.00 0.10
20170919225833 70 333 7.0 9.0 0.00 0.00 0.10
20170919225333 70 335 8.0 6.0 0.04 0.00 0.10
20170919224833 71 343 8.0 6.0 0.04 0.00 0.10
20170919224330 71 335 4.0 7.0 0.04 0.00 0.10
20170919223830 70 352 5.0 5.0 0.04 0.00 0.10
20170919223330 70 332 7.0 6.0 0.04 0.00 0.10
20170919222327 71 323 4.0 7.0 0.04 0.00 0.10
20170919221827 70 343 6.0 4.0 0.04 0.00 0.10
20170919221327 70 3 6.0 4.0 0.04 0.00 0.10
20170919220827 70 359 6.0 5.0 0.04 0.00 0.10
20170919220324 71 347 8.0 6.0 0.04 0.00 0.10
20170919215824 71 345 6.0 11.0 0.04 0.00 0.10
20170919215325 70 347 6.0 3.0 0.01 0.00 0.10
20170919214825 70 350 7.0 5.0 0.01 0.00 0.10
20170919212822 71 354 7.0 6.0 0.01 0.00 0.10
20170919211819 71 356 10.0 11.0 0.01 0.00 0.08
20170919210818 72 25 7.0 6.0 0.01 0.00 0.07
20170919210316 72 41 8.0 8.0 0.01 0.00 0.07
20170919205816 72 18 7.0 9.0 0.01 0.00 0.07
20170919205316 72 11 10.0 12.0 0.01 0.00 0.06
20170919204816 73 11 12.0 10.0 0.01 0.00 0.06
20170919204313 73 17 8.0 7.0 0.01 0.00 0.06
20170919203813 73 20 11.0 10.0 0.01 0.00 0.05
20170919203312 73 14 13.0 12.0 0.01 0.00 0.05
20170919202813 73 10 11.0 9.0 0.01 0.00 0.05
20170919200810 74 345 11.0 10.0 0.01 0.00 0.05
20170919200307 74 349 11.0 10.0 0.01 0.00 0.05
20170919195306 74 6 10.0 13.0 0.01 0.00 0.05
20170919194806 74 1 12.0 9.0 0.01 0.00 0.05
20170919194304 74 349 9.0 9.0 0.01 0.00 0.04
20170919193803 74 17 11.0 8.0 0.01 0.00 0.04
20170919192803 75 8 12.0 9.0 0.01 0.00 0.04
20170919191800 75 10 9.0 7.0 0.01 0.00 0.04
20170919190800 75 353 9.0 9.0 0.01 0.00 0.04
20170919184758 74 4 12.0 11.0 0.03 0.00 0.04
20170919184255 73 345 12.0 11.0 0.03 0.00 0.04
20170919183755 73 8 12.0 10.0 0.03 0.00 0.04
20170919183255 73 3 13.0 12.0 0.03 0.00 0.04
20170919182755 73 18 10.0 6.0 0.03 0.00 0.04
20170919182252 72 18 9.0 12.0 0.03 0.00 0.04
20170919181252 72 8 14.0 10.0 0.03 0.00 0.04
20170919180751 72 44 13.0 14.0 0.03 0.00 0.04
20170919180248 72 21 14.0 17.0 0.03 0.00 0.04
20170919175248 73 55 12.0 9.0 0.00 0.00 0.02
20170919174748 73 34 12.0 10.0 0.00 0.00 0.02
20170919174245 74 18 12.0 12.0 0.00 0.00 0.00
20170919173745 75 15 18.0 11.0 0.00 0.00 0.00
20170919173245 76 0 14.0 19.0 0.00 0.00 0.00
20170919172746 76 1 16.0 10.0 0.00 0.00 0.00
20170919172243 76 4 10.0 16.0 0.00 0.00 0.00
20170919171742 77 15 16.0 14.0 0.00 0.00 0.00
20170919171243 79 17 15.0 24.0 0.00 0.00 0.00
20170919170743 78 4 17.0 21.0 0.00 0.00 0.00
20170919170240 77 343 14.0 14.0 0.00 0.00 0.00
20170919165740 76 8 15.0 14.0 0.00 0.00 0.00
20170919165240 76 7 18.0 13.0 0.00 0.00 0.00
20170919164740 75 27 18.0 12.0 0.00 0.00 0.00
20170919164237 75 11 18.0 16.0 0.00 0.00 0.00
20170919163737 75 14 10.0 13.0 0.00 0.00 0.00
20170919163237 75 32 17.0 17.0 0.00 0.00 0.00
20170919162737 75 15 19.0 12.0 0.00 0.00 0.00
20170919162234 76 8 12.0 9.0 0.00 0.00 0.00
20170919161234 76 35 13.0 13.0 0.00 0.00 0.00
20170919160734 76 13 13.0 15.0 0.00 0.00 0.00
20170919160231 76 3 17.0 15.0 0.00 0.00 0.00
20170919155731 76 18 15.0 17.0 0.00 0.00 0.00
20170919155231 76 28 12.0 14.0 0.00 0.00 0.00
20170919154731 76 15 18.0 13.0 0.00 0.00 0.00
20170919154228 76 356 15.0 13.0 0.00 0.00 0.00
20170919153728 76 24 14.0 14.0 0.00 0.00 0.00
20170919153228 75 18 16.0 22.0 0.00 0.00 0.00
20170919152728 75 6 17.0 17.0 0.00 0.00 0.00
20170919152225 75 8 14.0 13.0 0.00 0.00 0.00
20170919151725 74 10 11.0 10.0 0.00 0.00 0.00
20170919151225 74 24 15.0 15.0 0.00 0.00 0.00
20170919150725 74 17 14.0 17.0 0.00 0.00 0.00
20170919150223 74 10 15.0 16.0 0.00 0.00 0.00
20170919145723 74 1 13.0 17.0 0.00 0.00 0.00
20170919145223 74 21 14.0 13.0 0.00 0.00 0.00
20170919144722 74 21 12.0 14.0 0.00 0.00 0.00
20170919143219 74 345 14.0 13.0 0.00 0.00 0.00
20170919142719 74 343 12.0 19.0 0.00 0.00 0.00
20170919141216 75 15 13.0 16.0 0.00 0.00 0.00
20170919140716 75 1 14.0 14.0 0.00 0.00 0.00
20170919135714 73 15 15.0 13.0 0.00 0.00 0.00
20170919135213 73 3 14.0 13.0 0.00 0.00 0.00
20170919134211 72 354 11.0 17.0 0.00 0.00 0.00
20170919133711 73 18 8.0 7.0 0.00 0.00 0.00
20170919133211 72 6 12.0 11.0 0.00 0.00 0.00
20170919132711 72 13 10.0 13.0 0.00 0.00 0.00
20170919132208 72 14 14.0 14.0 0.00 0.00 0.00
20170919131708 71 21 14.0 20.0 0.00 0.00 0.00
20170919131208 71 13 14.0 11.0 0.00 0.00 0.00
20170919130708 71 21 14.0 14.0 0.00 0.00 0.00
20170919130205 71 34 12.0 16.0 0.00 0.00 0.00
20170919124705 71 0 15.0 15.0 0.00 0.00 0.00
20170919124202 70 15 10.0 13.0 0.00 0.00 0.00
20170919123702 71 6 12.0 10.0 0.00 0.00 0.00
20170919123202 70 350 13.0 11.0 0.00 0.00 0.00
20170919122702 70 357 12.0 12.0 0.00 0.00 0.00
20170919122159 70 8 15.0 9.0 0.00 0.00 0.00
20170919121659 70 3 13.0 14.0 0.00 0.00 0.00
20170919120659 70 17 14.0 10.0 0.00 0.00 0.00
20170919120156 71 1 11.0 13.0 0.00 0.00 0.00
20170919115656 70 353 12.0 15.0 0.00 0.00 0.00
20170919115156 70 3 14.0 14.0 0.00 0.00 0.00
20170919114656 70 357 12.0 14.0 0.00 0.00 0.00
20170919114153 70 354 11.0 11.0 0.00 0.00 0.00
20170919113653 70 6 13.0 9.0 0.00 0.00 0.00
20170919113151 70 359 10.0 16.0 0.00 0.00 0.00
20170919112651 70 8 11.0 11.0 0.00 0.00 0.00
20170919112149 70 0 11.0 10.0 0.00 0.00 0.00
20170919111649 70 4 11.0 11.0 0.00 0.00 0.00
20170919111149 70 7 10.0 8.0 0.00 0.00 0.00
20170919110649 70 7 9.0 12.0 0.00 0.00 0.00
20170919110146 70 6 10.0 10.0 0.00 0.00 0.00
20170919105646 70 6 11.0 11.0 0.00 0.00 0.00
20170919105146 70 11 10.0 8.0 0.00 0.00 0.00
20170919104646 70 356 11.0 11.0 0.00 0.00 0.00
20170919104143 70 338 12.0 11.0 0.00 0.00 0.00
20170919103643 69 7 12.0 14.0 0.00 0.00 0.00
20170919103143 70 7 10.0 14.0 0.00 0.00 0.00
20170919102139 70 15 10.0 9.0 0.00 0.00 0.00
20170919101640 70 350 11.0 11.0 0.00 0.00 0.00
20170919101140 70 8 12.0 10.0 0.00 0.00 0.00
20170919100640 70 14 10.0 12.0 0.00 0.00 0.00
20170919095637 70 7 10.0 8.0 0.00 0.00 0.00
20170919095137 70 10 12.0 14.0 0.00 0.00 0.00
20170919094637 69 14 12.0 8.0 0.00 0.00 0.00
20170919094134 70 23 11.0 11.0 0.00 0.00 0.00
20170919093134 69 7 10.0 11.0 0.00 0.00 0.00
20170919092131 69 20 10.0 14.0 0.00 0.00 0.00
20170919090128 69 1 11.0 9.0 0.00 0.00 0.00
20170919085128 69 28 10.0 10.0 0.00 0.00 0.00
20170919082626 70 6 10.0 11.0 0.00 0.00 0.00
20170919082123 69 342 10.0 10.0 0.00 0.00 0.00
20170919081123 70 13 11.0 8.0 0.00 0.00 0.00
20170919080623 69 354 10.0 8.0 0.00 0.00 0.00
20170919075621 70 10 9.0 6.0 0.00 0.00 0.00
20170919075121 69 7 8.0 10.0 0.00 0.00 0.00
20170919074118 69 359 9.0 8.0 0.00 0.00 0.00
20170919073117 69 23 8.0 8.0 0.00 0.00 0.00
20170919072619 69 23 10.0 10.0 0.00 0.00 0.00
20170919072115 69 352 10.0 12.0 0.00 0.00 0.00
20170919070614 69 4 9.0 9.0 0.00 0.00 0.00
20170919070111 69 346 9.0 7.0 0.00 0.00 0.00
20170919065612 69 354 9.0 8.0 0.00 0.00 0.00
20170919064611 69 8 9.0 9.0 0.00 0.00 0.00
20170919064109 69 356 9.0 9.0 0.00 0.00 0.00
20170919063608 69 13 7.0 10.0 0.00 0.00 0.00
20170919063108 69 6 7.0 8.0 0.00 0.00 0.00
20170919062608 69 359 7.0 9.0 0.00 0.00 0.00
20170919061606 69 1 8.0 9.0 0.00 0.00 0.00
20170919061106 69 7 8.0 8.0 0.00 0.00 0.00
20170919060606 69 1 8.0 8.0 0.00 0.00 0.00
20170919060103 69 356 7.0 6.0 0.00 0.00 0.00
20170919053600 69 8 7.0 8.0 0.00 0.00 0.00
20170919053100 69 14 7.0 9.0 0.00 0.00 0.00
20170919051557 69 21 5.0 5.0 0.00 0.00 0.00
20170919051057 69 17 8.0 6.0 0.00 0.00 0.00
20170919050055 69 10 8.0 10.0 0.00 0.00 0.00
20170919045055 69 13 8.0 7.0 0.00 0.01 0.00
20170919044555 69 11 7.0 8.0 0.00 0.01 0.00
20170919044052 69 7 8.0 8.0 0.00 0.01 0.00
20170919043052 70 10 6.0 7.0 0.00 0.01 0.00
20170919042047 70 25 6.0 7.0 0.00 0.01 0.00
20170919041547 70 37 8.0 5.0 0.00 0.01 0.00
20170919041047 70 18 6.0 7.0 0.00 0.01 0.00
20170919040547 70 11 7.0 9.0 0.00 0.01 0.00